Weather in Uymen

Russia / Altai Republic     51°39′24″N   86°55′14″E
temp.,
°C
wind,
m/s
gust,
m/s
humid.,
%
clouds,
%
prec.,
mm/h
press.,
hPa
HPBL,
m
25 february, thu
thu2501:00−2wsw0184100 0.0 101332
04:00−6nw2597100 1.4 1013481
07:00−10nnw2397100 2.6 1013104
10:00−11nw2293100 0.6 1015330
13:00−12nw2493100 1.7 1017558
16:00−11nnw2390100 0.6 1019546
19:00−18nnw229898 0.9 102346
22:00−19s1197100 0.2 102621
26 february, fri
fri2601:00−22sse228878 0.2 102821
04:00−22s118388 0.0 103020
07:00−24nne129994 0.1 103331
10:00−22ne1291100 0.2 1035483
13:00−19ne2286100 0.3 1035526
16:00−19n3394100 0.4 1035542
19:00−22n12100100 0.8 103724
22:00−23se1198100 0.1 104020
27 february, sat
sat2701:00−25ese1196100 0.1 104120
04:00−25se1194100 0.0 104119
07:00−26e0091100 0.0 104119
10:00−22n1190100 0.0 1040119
13:00−16n2284100 0.0 1037375
16:00−15nne1184100 0.1 1036549
19:00−20n0199100 0.1 103820
22:00−22s119499 0.0 104120
28 february, sun
sun2801:00−24sse118769 0.0 104120
04:00−23sse11820 0.0 104120
07:00−22se118217 0.0 104220
10:00−15ne1183100 0.0 1040101
13:00−10nne2282100 0.0 1037349
16:00−8n228696 0.0 1035345
19:00−14se119588 0.1 103620
22:00−13sse228498 0.0 103631
1 march, mon
mon101:00−12se228397 0.0 103428
04:00−10se2284100 0.0 103254
07:00−9se2286100 0.0 102966
10:00−7ese2487100 0.3 1026234
13:00−1ese1582100 0.3 1022479
16:00+1se0398100 0.1 1020236
19:00−1s1286100 0.1 102045
22:00−3s1287100 0.0 102128